www.pogodaiklimat.ru

Погода и климат >> Архив погоды >> Россия >> Волгоградская область >> Волгоград город


ПОГОДА в Волгограде город

  • Прогноз погоды в Волгограде город
  • Монитор погоды в Волгограде город
  • Климат города

АРХИВ ПОГОДЫ в Волгограде город

Время (UTC), дата Ветер
(напр.,м/с)
 
Видим.   Явления Облачность Т
(С)
Тd
(С)
f
(%)
Тe
(С)
Тes
(С)
Комфортность P
(гПа)
Po
(гПа)
Тmin
(С)
Tmax
(С)
R
(мм)
R24
(мм)
S
(см)
09 10.12 ЮВ 1 10 км 10/0
[Ac und]
+0.6 -1.1 88 -1 -1 1020.9 1006.3
12 10.12 Ю 1 10 км 8/0
[Ac trans Ci fib]
+2.8 -0.5 79 +1 +2 1020.4 1006.0
15 10.12 ЮВ 1 10 км 8/0
[Ci fib]
+0.6 -0.9 90 -1 -1 1020.8 1006.2 +2.9
18 10.12 Ю 3 500 м туман ?/? +0.1 -0.9 93 -5 -5 1020.3 1005.7
21 10.12 Ю 3 500 м туман ?/? +0.4 -0.5 94 -4 -4 1020.5 1005.9
00 11.12 ЮВ 3 500 м туман ?/? +0.1 -0.8 94 -5 -5 1019.1 1004.6
03 11.12 Ю 3 500 м туман ?/? +0.9 0.0 94 -4 -4 1020.2 1005.6 -0.4
06 11.12 Ю 2 200 м слабый ливневой дождь {туман} туман ?/? +1.6 +0.7 94 -2 -2 1021.2 1006.7
09 11.12 Ю 2 1000 м в посл. час туман {ливн. осадки} 10/10 100 м
[St]
+2.8 +1.8 93 -0 -0 1022.3 1007.8
12 11.12 ЮЗ 1 10 км {ливн. осадки, туман} 6/3 600 м
[Sc diur, vesp Ac lent Ci fib]
+2.6 -2.1 71 +1 +2 1022.8 1008.3
15 11.12 Ю 1 10 км 1/0
[Ci fib]
+1.0 -2.3 79 -1 -1 1025.0 1010.4 +3.0 0.4
18 11.12 ЮЗ 2 10 км 10/0
[Cs]
+0.8 -3.3 74 -2 -2 1025.4 1010.8
21 11.12 Ю 1 10 км 10/0
[Ac As]
+0.5 -2.9 78 -1 -1 1025.5 1010.8
00 12.12 З 3 10 км 10/6 1000 м
[Sc Ac As]
+2.3 -2.6 70 -2 -2 1025.4 1010.8
03 12.12 Ю 2 10 км 10/6 1000 м
[Sc Ac As]
+2.5 -1.8 73 -0 -0 1024.9 1010.4 +0.4
06 12.12 Ю 1 10 км слабый ливневой дождь 10/10 600 м
[Cb cap]
+2.5 -1.8 73 +1 +1 1024.9 1010.3
09 12.12 Ю 2 1000 м ливневой дождь 10/10 600 м
[Cb cap]
+2.6 +1.3 91 -1 -1 1024.0 1009.5
12 12.12 Ю 1 4000 м слабый ливневой дождь 10/10 600 м
[Cb cap]
+3.4 +2.1 91 +2 +2 1023.1 1008.7
15 12.12 Ю 2 10 км слабый ливневой дождь 10/10 300 м
[Cb cap]
+4.2 +2.8 91 +1 +1 1023.3 1008.9 +4.2 5
18 12.12 Ю 2 10 км слабый дождь {ливн. осадки} 10/10 300 м
[Sc diur, vesp]
+4.3 +2.6 89 +1 +1 1022.8 1008.4
21 12.12 Ю 2 10 км {дождь} 10/10 300 м
[Sc]
+4.4 +2.3 86 +2 +2 1021.8 1007.4
00 13.12 Ю 2 10 км {дождь} 10/10 300 м
[Sc]
+5.1 +2.3 82 +3 +3 1021.3 1007.0
03 13.12 Ю 2 10 км 8/8 300 м
[Sc]
+5.9 +1.8 75 +4 +4 1020.7 1006.5 +4.1 3
06 13.12 Ю 2 10 км 10/10 300 м
[Sc]
+5.1 +1.4 77 +3 +3 1021.6 1007.3
09 13.12 Ю 1 10 км 10/3 300 м
[Sc Ac und]
+5.5 +2.0 78 +4 +5 1021.3 1007.0
12 13.12 Ю 2 10 км 8/5 300 м
[Sc Ac As]
+6.0 +3.0 81 +4 +4 1021.1 1006.8
15 13.12 Ю 2 10 км 8/8 300 м
[Sc]
+5.7 +3.3 85 +3 +3 1021.4 1007.1 +6.0
18 13.12 Ю 3 10 км 10/5 300 м
[Sc Ac und]
+6.0 +3.3 83 +3 +3 1021.7 1007.4
21 13.12 Ю 2 10 км 10/10 200 м
[St]
+4.7 +2.7 87 +2 +2 1022.1 1007.8
00 14.12 Ю 3 10 км 10/10 200 м
[St]
+3.7 +1.9 88 -0 -0 1022.9 1008.5
03 14.12 Ю 3 10 км 10/10 200 м
[St]
+2.8 +1.1 89 -1 -1 1023.1 1008.7 +2.7
06 14.12 Ю 4-12
{12}
10 км 10/10 300 м
[Sc]
+3.4 +1.1 85 -1 -1 1023.3 1008.9
09 14.12 Ю 5-10
{12}
10 км 10/10 300 м
[Sc]
+2.8 +0.6 85 -3 -3 1022.8 1008.3
12 14.12 Ю 3
{13}
10 км 10/10 300 м
[Sc]
+2.1 -0.6 82 -2 -2 1022.4 1007.9
15 14.12 Ю 3 10 км 10/10 300 м
[Sc]
+1.0 -1.6 83 -3 -3 1022.9 1008.3 +3.6
18 14.12 Ю 3
{11}
10 км 10/10 300 м
[Sc]
-0.3 -3.1 81 -5 -5 1022.8 1008.2
21 14.12 Ю 3
{10}
10 км 10/10 300 м
[Sc]
-1.6 -4.3 82 -7 -7 1023.2 1008.5
00 15.12 Ю 3 10 км 10/10 300 м
[Sc]
-2.6 -4.5 87 -8 -8 1023.0 1008.3
03 15.12 ЮВ 2 10 км 10/10 300 м
[Sc]
-2.2 -4.1 87 -6 -6 1023.1 1008.3 -2.7
06 15.12 ЮВ 3 10 км 10/10 200 м
[St]
-1.8 -3.5 88 -7 -7 1023.6 1008.9
09 15.12 Ю 3 1000 м слабая переохл. морось (гололёд) [диам. гололёда 1 мм] 10/10 100 м
[St]
-1.3 -2.3 93 -6 -6 1023.4 1008.7
12 15.12 ЮВ 2 1000 м слабая переохл. морось (гололёд) [диам. гололёда 2 мм] 10/10 100 м
[St]
-1.1 -2.2 92 -5 -5 1022.5 1007.8
15 15.12 ЮВ 2 1000 м слабая переохл. морось (гололёд) {дождь} [диам. гололёда 3 мм] 10/10 100 м
[St]
-0.5 -1.6 92 -4 -4 1023.6 1008.9 -0.5 0.5
18 15.12 ЮВ 2 1000 м слабая переохл. морось (гололёд) {дождь} [диам. гололёда 4 мм] 10/10 100 м
[St]
-0.3 -1.3 93 -4 -4 1023.5 1008.8
21 15.12 Ю 2 1000 м слабый снег {морось} [диам. гололёда 4 мм] 10/10 100 м
[Frnb Ns]
-0.7 -1.9 92 -5 -5 1023.8 1009.1
00 16.12 Ю 2 1000 м переохл. дождь (гололёд) {ливн. осадки, снег} [диам. гололёда 5 мм] 10/10 100 м
[Frnb Ns]
-0.9 -1.9 93 -5 -5 1024.5 1009.8
03 16.12 Ю 2 1000 м дымка {дождь, морось} [диам. гололёда 5 мм] 10/10 100 м
[St]
-0.9 -1.9 93 -5 -5 1025.2 1010.5 -1.0 2 1
06 16.12 ЮВ 1 1000 м дымка {дождь, морось} [диам. гололёда 5 мм] 10/10 100 м
[St]
-0.7 -1.7 93 -3 -3 1025.5 1010.8
09 16.12 Ю 2 500 м туман [диам. сложн. отлож. 6 мм] ?/? -0.3 -1.2 94 -4 -4 1025.4 1010.7
12 16.12 ЮВ 1 200 м туман [диам. сложн. отлож. 4 мм] ?/? +0.3 -0.7 93 -2 -2 1025.8 1011.2
15 16.12 ЮВ 2 200 м туман ?/? +0.1 -0.8 94 -4 -4 1026.6 1012.0 +0.4 0.0
18 16.12 ЮВ 3 200 м туман {морось} ?/? +0.2 -0.7 94 -5 -5 1026.7 1012.0
21 16.12 Ю 2 500 м туман ?/? +0.2 -0.7 94 -4 -4 1027.4 1012.7
00 17.12 ЮВ 2 10 км {туман} 10/10 100 м
[St]
-0.7 -1.6 94 -5 -5 1026.4 1011.6
03 17.12 Ю 3 1000 м дымка 10/10 100 м
[St]
-0.9 -1.8 94 -6 -6 1026.2 1011.5 -1.2 0.1
06 17.12 Ю 4
{10}
1000 м дымка {морось, туман} [диам. гололёда 1 мм] 10/10 100 м
[St]
-0.3 -1.2 94 -6 -6 1026.9 1012.2

 

Местоположение метеостанции Волгоград город (Волгоградская область, Россия): широта 48.67 долгота 44.45 высота над уровнем моря 116 м.

В архиве по умолчанию представлена погода в Волгограде город за последнюю неделю. Архивные данные за месяц целиком и за предыдущие месяцы, начиная с января 2011 года, Вы можете получить, выбрав интересующий диапазон дат из раскрывающегося списка и нажав кнопку "Ввод!".

Внимание! Время в таблицах - всемирное. Для получения местного времени необходимо прибавить поправку, которая в Волгограде город равна 3 ч.

Смотрите также архив погоды в соседних городах и на ближайших метеорологических станциях:

Погода в Волгограде (Волгоградская область, Россия) (14 км)
Погода в Калаче-на-Дону (Волгоградская область, Россия) (71 км)
Погода в Иловле (Волгоградская область, Россия) (77 км)
Погода в Малых Дербетах (Калмыкия, Россия) (84 км)
Погода в Нижнем Чире (Волгоградская область, Россия) (105 км)
Погода в Ольховке (Волгоградская область, Россия) (134 км)
Погода в Фролове (Волгоградская область, Россия) (138 км)
Погода в Черный Яр (Астраханская область, Россия) (140 км)
Погода в Кетченерах (Калмыкия, Россия) (150 км)
Погода в Котельниково (Волгоградская область, Россия) (151 км)

Пояснения к столбцам:

Ветер - указаны скорость ветра в м/с - средняя за 10 мин, порывы в срок и между сроками (в фигурных скобках) и направление, откуда дует ветер: С - северный, СВ - северо-восточный, В - восточный, ЮВ - юго-восточный, Ю - южный, ЮЗ - юго-западный, З - западный, СЗ - северо-западный.
Видимость - горизонтальная дальность видимости в метрах или километрах. При видимости от 1 до 10 км при отсутствии осадков обычно наблюдается дымка, при ухудшении видимости до 1 км и менее - туман. В сухую погоду видимость может ухудшаться дымом, пылью или мглою.
Явления - указаны атмосферные явления, наблюдавшиеся в срок или в последний час перед сроком; фигурными скобками обозначены явления, наблюдавшиеся между сроками (за 1-3 часа до срока); квадратными скобками обозначены град или гололедные отложения с указанием их диаметра в мм.
Облачность - указаны через наклонную черту общая и нижняя облачность в баллах и высота нижней границы облаков в метрах; квадратными скобками обозначены формы облаков: Ci - перистые, Cs - перисто-слоистые, Cc - перисто-кучевые, Ac - высококучевые, As - высокослоистые, Sc - слоисто-кучевые, Ns - слоисто-дождевые, Cu - кучевые, Cb - кучево-дождевые. Подробнее классификацию облаков см. в Атласе облаков (PDF).
T - Температура воздуха - температура, измеренная на высоте 2 м над землей.
Td - Температура точки росы - температура, при понижении до которой содержащийся в воздухе водяной пар достигнет насыщения.
f - Относительная влажность воздуха - влажноcть воздуха, измеренная на высоте 2 м над землей.
Te - Эффективная температура - температура, которую ощущает одетый по сезону человек в тени. Характеристика душности погоды. При расчете учитывается влияние влажности воздуха и скорости ветра на теплоощущения человека.
Tes - Эффективная температура на солнце - температура, которую ощущает человек, с поправкой на солнечный нагрев. Характеристика знойности погоды. Зависит от высоты солнца над горизонтом, облачности и скорости ветра. Ночью, в пасмурную погоду, а также при ветре 12 м/с и более поправка равна нулю.
P - Атмосферное давление - приведенное к уровню моря атмосферное давление.
Po - Атмосферное давление - измеренное на уровне метеостанции атмосферное давление.
Tmin - Минимальная температура - минимум температуры воздуха на высоте 2 м над землей.
Tmax - Максимальная температура - максимум температуры воздуха на высоте 2 м над землей.
R - Количество осадков - Количество выпавших осадков за период времени, мм. При наведении курсора мыши на число - период времени, за который выпало указанное количество осадков.
R24 - Количество осадков - Количество выпавших осадков за 24 часа, мм.
S - Снежный покров - Высота снежного покрова, см. При наведении курсора мыши на число - состояние снежного покрова и степень покрытия местности в баллах.